When you browse on this site, cookies collect data to enhance your experience and personalize the content and advertising you see.
Visit our Privacy Policy to learn more. By continuing to use the site, you agree to this use of cookies and data.
  • In Romania
  • List of Countries
  • For 7 days
  • Water Temperature
  • Satellite Maps
  • Weather Map
  • Weather Widgets
  • user-avatar
    Login

    Hourly Weather Shahabad

    Today, 16 February, Saturday

    Time Temperature Precipitation Wind Pressure Humidity
    00:00 +30°C° 0 mm 2 mps 725 mmHg 28%
    01:00 +30°C° 0 mm 2 mps 725 mmHg 28%
    02:00 +29°C° 0 mm 3 mps 725 mmHg 28%
    03:00 +28°C° 0 mm 3 mps 725 mmHg 28%
    04:00 +27°C° 0 mm 3 mps 725 mmHg 28%
    05:00 +26°C° 0 mm 3 mps 725 mmHg 29%
    06:00 +27°C° 0 mm 3 mps 725 mmHg 27%
    07:00 +27°C° 0 mm 4 mps 726 mmHg 26%
    08:00 +28°C° 0 mm 4 mps 726 mmHg 25%
    09:00 +30°C° 0 mm 4 mps 726 mmHg 23%
    10:00 +31°C° 0 mm 3 mps 726 mmHg 21%
    11:00 +34°C° 0 mm 3 mps 726 mmHg 19%
    12:00 +35°C° 0 mm 2 mps 726 mmHg 18%
    13:00 +36°C° 0 mm 2 mps 725 mmHg 17%
    14:00 +36°C° 0 mm 2 mps 724 mmHg 16%
    15:00 +36°C° 0 mm 2 mps 724 mmHg 15%
    16:00 +37°C° 0 mm 2 mps 724 mmHg 15%
    17:00 +37°C° 0 mm 3 mps 724 mmHg 14%
    18:00 +36°C° 0 mm 2 mps 724 mmHg 15%
    19:00 +34°C° 0 mm 2 mps 725 mmHg 16%
    20:00 +32°C° 0 mm 2 mps 725 mmHg 17%
    21:00 +31°C° 0 mm 2 mps 725 mmHg 17%
    22:00 +31°C° 0 mm 2 mps 725 mmHg 18%
    23:00 +30°C° 0 mm 2 mps 726 mmHg 18%

    Tomorrow, 17 February, Sunday

    Time Temperature Precipitation Wind Pressure Humidity
    00:00 +29°C° 0 mm 2 mps 725 mmHg 18%
    01:00 +29°C° 0 mm 2 mps 725 mmHg 18%
    02:00 +28°C° 0 mm 2 mps 725 mmHg 19%
    03:00 +27°C° 0 mm 2 mps 725 mmHg 19%
    04:00 +27°C° 0 mm 2 mps 724 mmHg 20%
    05:00 +26°C° 0 mm 2 mps 724 mmHg 20%
    06:00 +26°C° 0 mm 3 mps 725 mmHg 20%
    07:00 +27°C° 0 mm 4 mps 726 mmHg 21%
    08:00 +28°C° 0 mm 5 mps 726 mmHg 21%
    09:00 +30°C° 0 mm 4 mps 726 mmHg 20%
    10:00 +33°C° 0 mm 4 mps 726 mmHg 19%
    11:00 +35°C° 0 mm 3 mps 726 mmHg 18%
    12:00 +35°C° 0 mm 3 mps 725 mmHg 16%
    13:00 +36°C° 0 mm 2 mps 725 mmHg 15%
    14:00 +36°C° 0 mm 1 mps 724 mmHg 14%
    15:00 +37°C° 0 mm 2 mps 723 mmHg 13%
    16:00 +37°C° 0 mm 2 mps 723 mmHg 13%
    17:00 +37°C° 0 mm 2 mps 723 mmHg 12%
    18:00 +36°C° 0 mm 2 mps 723 mmHg 13%
    19:00 +33°C° 0 mm 1 mps 723 mmHg 15%
    20:00 +32°C° 0 mm 1 mps 724 mmHg 16%
    21:00 +31°C° 0 mm 1 mps 724 mmHg 16%
    22:00 +30°C° 0 mm 2 mps 724 mmHg 17%
    23:00 +30°C° 0 mm 2 mps 724 mmHg 18%

    Day after tomorrow, 18 February, Monday

    Time Temperature Precipitation Wind Pressure Humidity
    00:00 +29°C° 0 mm 2 mps 724 mmHg 19%
    01:00 +28°C° 0 mm 3 mps 723 mmHg 21%
    02:00 +27°C° 0 mm 3 mps 723 mmHg 22%
    03:00 +27°C° 0 mm 2 mps 723 mmHg 23%
    04:00 +26°C° 0 mm 2 mps 723 mmHg 24%
    05:00 +25°C° 0 mm 2 mps 723 mmHg 24%
    06:00 +26°C° 0 mm 2 mps 724 mmHg 23%
    07:00 +27°C° 0 mm 2 mps 725 mmHg 22%
    08:00 +28°C° 0 mm 2 mps 725 mmHg 21%
    09:00 +30°C° 0 mm 3 mps 725 mmHg 19%
    10:00 +33°C° 0 mm 3 mps 726 mmHg 17%
    11:00 +35°C° 0 mm 3 mps 726 mmHg 15%
    12:00 +36°C° 0 mm 3 mps 725 mmHg 14%
    13:00 +37°C° 0 mm 2 mps 724 mmHg 13%
    14:00 +37°C° 0 mm 1 mps 723 mmHg 12%
    15:00 +37°C° 0 mm 1 mps 722 mmHg 11%
    16:00 +37°C° 0 mm 1 mps 722 mmHg 11%
    17:00 +37°C° 0 mm 1 mps 722 mmHg 11%
    18:00 +35°C° 0 mm 1 mps 722 mmHg 12%
    19:00 +34°C° 0 mm 1 mps 723 mmHg 13%
    20:00 +32°C° 0 mm 1 mps 723 mmHg 14%
    21:00 +32°C° 0 mm 2 mps 723 mmHg 15%
    22:00 +31°C° 0 mm 2 mps 723 mmHg 16%
    23:00 +30°C° 0 mm 3 mps 723 mmHg 17%

    19 February, Tuesday

    Time Temperature Precipitation Wind Pressure Humidity
    00:00 +29°C° 0 mm 3 mps 723 mmHg 18%
    01:00 +29°C° 0 mm 3 mps 723 mmHg 19%
    02:00 +28°C° 0 mm 3 mps 722 mmHg 20%
    03:00 +28°C° 0 mm 3 mps 722 mmHg 28%
    04:00 +27°C° 0 mm 3 mps 722 mmHg 35%
    05:00 +27°C° 0 mm 2 mps 722 mmHg 42%
    06:00 +28°C° 0 mm 3 mps 723 mmHg 48%
    07:00 +29°C° 0 mm 4 mps 724 mmHg 54%
    08:00 +29°C° 0 mm 5 mps 725 mmHg 60%
    09:00 +32°C° 0 mm 5 mps 725 mmHg 51%
    10:00 +34°C° 0 mm 5 mps 725 mmHg 43%
    11:00 +36°C° 0 mm 6 mps 725 mmHg 35%
    12:00 +37°C° 0 mm 5 mps 725 mmHg 31%
    13:00 +38°C° 0 mm 4 mps 724 mmHg 27%
    14:00 +38°C° 0 mm 3 mps 723 mmHg 23%
    15:00 +38°C° 0 mm 3 mps 723 mmHg 23%
    16:00 +38°C° 0 mm 2 mps 723 mmHg 22%
    17:00 +38°C° 0 mm 2 mps 723 mmHg 22%
    18:00 +38°C° 0 mm 2 mps 723 mmHg 23%
    19:00 +37°C° 0 mm 2 mps 724 mmHg 24%
    20:00 +37°C° 0 mm 3 mps 725 mmHg 25%
    21:00 +36°C° 0 mm 3 mps 725 mmHg 27%
    22:00 +35°C° 0 mm 4 mps 725 mmHg 29%
    23:00 +35°C° 0 mm 5 mps 725 mmHg 31%

    20 February, Wednesday

    Time Temperature Precipitation Wind Pressure Humidity
    00:00 +33°C° 0 mm 5 mps 725 mmHg 37%
    01:00 +32°C° 0 mm 5 mps 724 mmHg 43%
    02:00 +30°C° 0 mm 6 mps 724 mmHg 49%
    03:00 +30°C° 0 mm 5 mps 724 mmHg 51%
    04:00 +29°C° 0 mm 5 mps 724 mmHg 53%
    05:00 +28°C° 0 mm 4 mps 724 mmHg 55%
    06:00 +29°C° 0 mm 4 mps 725 mmHg 53%
    07:00 +29°C° 0 mm 4 mps 726 mmHg 51%
    08:00 +29°C° 0 mm 4 mps 727 mmHg 49%
    09:00 +32°C° 0 mm 5 mps 727 mmHg 44%
    10:00 +34°C° 0 mm 5 mps 727 mmHg 38%
    11:00 +36°C° 0 mm 5 mps 727 mmHg 33%
    12:00 +36°C° 0 mm 5 mps 726 mmHg 30%
    13:00 +37°C° 0 mm 5 mps 725 mmHg 28%
    14:00 +38°C° 0 mm 4 mps 724 mmHg 25%
    15:00 +38°C° 0 mm 4 mps 724 mmHg 25%
    16:00 +38°C° 0 mm 4 mps 724 mmHg 24%
    17:00 +38°C° 0 mm 4 mps 724 mmHg 23%
    18:00 +37°C° 0 mm 4 mps 725 mmHg 25%
    19:00 +36°C° 0 mm 4 mps 725 mmHg 27%
    20:00 +35°C° 0 mm 3 mps 726 mmHg 28%
    21:00 +34°C° 0 mm 5 mps 726 mmHg 32%
    22:00 +33°C° 0 mm 6 mps 726 mmHg 35%
    23:00 +32°C° 0 mm 7 mps 726 mmHg 38%

    21 February, Thursday

    Time Temperature Precipitation Wind Pressure Humidity
    00:00 +32°C° 0 mm 6 mps 726 mmHg 39%
    01:00 +30°C° 0 mm 6 mps 726 mmHg 40%
    02:00 +29°C° 0 mm 5 mps 725 mmHg 41%
    03:00 +28°C° 0 mm 5 mps 726 mmHg 41%
    04:00 +28°C° 0 mm 5 mps 726 mmHg 41%
    05:00 +27°C° 0 mm 4 mps 726 mmHg 41%
    06:00 +28°C° 0 mm 4 mps 726 mmHg 39%
    07:00 +28°C° 0 mm 3 mps 727 mmHg 38%
    08:00 +29°C° 0 mm 3 mps 728 mmHg 36%
    09:00 +31°C° 0 mm 3 mps 728 mmHg 30%
    10:00 +34°C° 0 mm 4 mps 728 mmHg 25%
    11:00 +36°C° 0 mm 4 mps 728 mmHg 19%
    12:00 +37°C° 0 mm 4 mps 727 mmHg 18%
    13:00 +37°C° 0 mm 4 mps 726 mmHg 18%
    14:00 +38°C° 0 mm 4 mps 725 mmHg 17%
    15:00 +38°C° 0 mm 4 mps 725 mmHg 17%
    16:00 +38°C° 0 mm 3 mps 725 mmHg 17%
    17:00 +38°C° 0 mm 3 mps 725 mmHg 17%
    18:00 +37°C° 0 mm 3 mps 726 mmHg 18%
    19:00 +36°C° 0 mm 3 mps 726 mmHg 20%
    20:00 +34°C° 0 mm 2 mps 727 mmHg 21%
    21:00 +34°C° 0 mm 3 mps 727 mmHg 23%
    22:00 +33°C° 0 mm 3 mps 727 mmHg 26%
    23:00 +32°C° 0 mm 4 mps 727 mmHg 28%
    Show more